| time (UTC) | temp F | wind direction | speed MPH | gust MPH | rain 1hr in | rain 24hr in | rain mn in | humidity % | barometer mb |
| 20260510063055 | 57 | 70 | 4.0 | 14.0 | 0.00 | 0.00 | 0.00 | 59 | 1018.1 |
| 20260510061557 | 58 | 69 | 3.0 | 13.0 | 0.00 | 0.00 | 0.00 | 60 | 1017.7 |
| 20260510054556 | 59 | 330 | 4.0 | 19.0 | 0.00 | 0.00 | 0.00 | 58 | 1017.5 |
| 20260510053057 | 59 | 70 | 3.0 | 15.0 | 0.00 | 0.00 | 0.00 | 59 | 1016.6 |
| 20260510051559 | 60 | 322 | 8.0 | 18.0 | 0.00 | 0.00 | 0.00 | 59 | 1015.0 |
| 20260510050100 | 60 | 77 | 9.0 | 18.0 | 0.00 | 0.00 | 0.00 | 58 | 1014.7 |
| 20260510044637 | 60 | 77 | 7.0 | 16.0 | 0.00 | 0.00 | 0.00 | 58 | 1014.7 |
| 20260510043059 | 60 | 25 | 8.0 | 17.0 | 0.00 | 0.00 | 0.00 | 58 | 1014.2 |
| 20260510041556 | 61 | 93 | 10.0 | 22.0 | 0.00 | 0.00 | 0.00 | 56 | 1013.7 |
| 20260510040055 | 61 | 66 | 7.0 | 16.0 | 0.00 | 0.00 | 0.00 | 55 | 1013.2 |
| 20260510034554 | 62 | 68 | 5.0 | 12.0 | 0.00 | 0.00 | 0.00 | 54 | 1013.1 |
| 20260510033100 | 63 | 73 | 3.0 | 14.0 | 0.00 | 0.00 | 0.00 | 53 | 1012.9 |
| 20260510031558 | 64 | 46 | 5.0 | 14.0 | 0.00 | 0.00 | 0.00 | 51 | 1012.2 |
| 20260510030055 | 65 | 80 | 7.0 | 15.0 | 0.00 | 0.00 | 0.00 | 49 | 1011.7 |
| 20260510024556 | 65 | 87 | 6.0 | 16.0 | 0.00 | 0.00 | 0.00 | 47 | 1011.4 |
| 20260510023102 | 66 | 37 | 7.0 | 18.0 | 0.00 | 0.00 | 0.00 | 45 | 1010.8 |
| 20260510021557 | 67 | 72 | 6.0 | 17.0 | 0.00 | 0.00 | 0.00 | 44 | 1010.7 |
| 20260510014556 | 70 | 56 | 6.0 | 17.0 | 0.00 | 0.00 | 0.00 | 40 | 1009.9 |
| 20260510013053 | 73 | 18 | 4.0 | 14.0 | 0.00 | 0.00 | 0.00 | 38 | 1009.4 |
| 20260510011558 | 77 | 47 | 5.0 | 17.0 | 0.00 | 0.00 | 0.00 | 33 | 1008.8 |
| 20260510010131 | 80 | 311 | 3.0 | 10.0 | 0.00 | 0.00 | 0.00 | 23 | 1008.2 |
| 20260510004559 | 81 | 352 | 4.0 | 11.0 | 0.00 | 0.00 | 0.00 | 22 | 1007.7 |
| 20260510003059 | 82 | 12 | 5.0 | 11.0 | 0.00 | 0.00 | 0.00 | 21 | 1007.5 |
| 20260510001604 | 83 | 14 | 7.0 | 17.0 | 0.00 | 0.00 | 0.00 | 21 | 1007.5 |
| 20260510000058 | 84 | 10 | 6.0 | 17.0 | 0.00 | 0.00 | 0.00 | 20 | 1007.4 |
| 20260509234642 | 84 | 341 | 4.0 | 19.0 | 0.00 | 0.00 | 0.00 | 21 | 1007.5 |
| 20260509233100 | 85 | 1 | 6.0 | 18.0 | 0.00 | 0.00 | 0.00 | 19 | 1007.5 |
| 20260509231602 | 86 | 1 | 7.0 | 16.0 | 0.00 | 0.00 | 0.00 | 20 | 1007.4 |
| 20260509230058 | 87 | 351 | 7.0 | 15.0 | 0.00 | 0.00 | 0.00 | 18 | 1007.2 |
| 20260509224556 | 87 | 253 | 3.0 | 11.0 | 0.00 | 0.00 | 0.00 | 19 | 1007.1 |
| 20260509223055 | 87 | 339 | 4.0 | 17.0 | 0.00 | 0.00 | 0.00 | 18 | 1007.1 |
| 20260509221554 | 88 | 341 | 5.0 | 12.0 | 0.00 | 0.00 | 0.00 | 18 | 1007.1 |
| 20260509214556 | 88 | 352 | 4.0 | 14.0 | 0.00 | 0.00 | 0.00 | 18 | 1007.0 |
| 20260509213057 | 89 | 318 | 4.0 | 13.0 | 0.00 | 0.00 | 0.00 | 17 | 1007.1 |
| 20260509211556 | 89 | 287 | 4.0 | 10.0 | 0.00 | 0.00 | 0.00 | 18 | 1007.0 |
| 20260509210057 | 89 | 1 | 2.0 | 13.0 | 0.00 | 0.00 | 0.00 | 19 | 1007.2 |
| 20260509204601 | 88 | 118 | 4.0 | 16.0 | 0.00 | 0.00 | 0.00 | 20 | 1007.2 |
| 20260509203138 | 88 | 199 | 2.0 | 18.0 | 0.00 | 0.00 | 0.00 | 19 | 1007.3 |
| 20260509201614 | 87 | 248 | 9.0 | 18.0 | 0.00 | 0.00 | 0.00 | 18 | 1007.3 |
| 20260509194554 | 87 | 245 | 5.0 | 14.0 | 0.00 | 0.00 | 0.00 | 20 | 1008.0 |
| 20260509193133 | 85 | 226 | 7.0 | 22.0 | 0.00 | 0.00 | 0.00 | 21 | 1008.2 |
| 20260509191614 | 85 | 199 | 8.0 | 19.0 | 0.00 | 0.00 | 0.00 | 21 | 1008.2 |
| 20260509190106 | 84 | 249 | 10.0 | 23.0 | 0.00 | 0.00 | 0.00 | 22 | 1008.5 |
| 20260509184600 | 83 | 214 | 8.0 | 22.0 | 0.00 | 0.00 | 0.00 | 23 | 1008.7 |
| 20260509183100 | 83 | 253 | 11.0 | 23.0 | 0.00 | 0.00 | 0.00 | 23 | 1009.1 |
| 20260509181602 | 82 | 208 | 10.0 | 23.0 | 0.00 | 0.00 | 0.00 | 23 | 1009.4 |
| 20260509180106 | 82 | 226 | 10.0 | 21.0 | 0.00 | 0.00 | 0.00 | 24 | 1009.7 |
| 20260509174618 | 81 | 216 | 9.0 | 21.0 | 0.00 | 0.00 | 0.00 | 24 | 1010.1 |
| 20260509173104 | 80 | 198 | 9.0 | 20.0 | 0.00 | 0.00 | 0.00 | 25 | 1010.4 |
| 20260509171559 | 79 | 212 | 10.0 | 19.0 | 0.00 | 0.00 | 0.00 | 25 | 1010.7 |
| 20260509170059 | 78 | 208 | 11.0 | 18.0 | 0.00 | 0.00 | 0.00 | 25 | 1010.9 |
| 20260509164607 | 77 | 201 | 11.0 | 20.0 | 0.00 | 0.00 | 0.00 | 26 | 1011.0 |
| 20260509163105 | 76 | 247 | 7.0 | 16.0 | 0.00 | 0.00 | 0.00 | 29 | 1011.1 |
| 20260509161600 | 75 | 210 | 6.0 | 15.0 | 0.00 | 0.00 | 0.00 | 30 | 1011.4 |
| 20260509160057 | 74 | 226 | 7.0 | 19.0 | 0.00 | 0.00 | 0.00 | 32 | 1011.5 |
| 20260509154558 | 73 | 219 | 10.0 | 21.0 | 0.00 | 0.00 | 0.00 | 31 | 1011.7 |
| 20260509153057 | 72 | 187 | 10.0 | 22.0 | 0.00 | 0.00 | 0.00 | 33 | 1011.8 |
| 20260509151605 | 70 | 188 | 8.0 | 18.0 | 0.00 | 0.00 | 0.00 | 35 | 1012.0 |
| 20260509150056 | 68 | 216 | 8.0 | 19.0 | 0.00 | 0.00 | 0.00 | 37 | 1012.2 |
| 20260509144556 | 67 | 215 | 8.0 | 16.0 | 0.00 | 0.00 | 0.00 | 39 | 1012.4 |
| 20260509143059 | 65 | 237 | 7.0 | 14.0 | 0.00 | 0.00 | 0.00 | 42 | 1012.6 |
| 20260509141559 | 63 | 186 | 5.0 | 14.0 | 0.00 | 0.00 | 0.00 | 45 | 1012.7 |
| 20260509140059 | 62 | 216 | 8.0 | 17.0 | 0.00 | 0.00 | 0.00 | 46 | 1012.9 |
| 20260509134556 | 60 | 227 | 8.0 | 22.0 | 0.00 | 0.00 | 0.00 | 47 | 1012.8 |
| 20260509133103 | 58 | 230 | 8.0 | 14.0 | 0.00 | 0.00 | 0.00 | 51 | 1012.8 |
| 20260509131602 | 56 | 228 | 6.0 | 12.0 | 0.00 | 0.00 | 0.00 | 55 | 1012.7 |
| 20260509124558 | 54 | 220 | 3.0 | 7.0 | 0.00 | 0.00 | 0.00 | 58 | 1012.4 |
| 20260509123056 | 54 | 198 | 4.0 | 8.0 | 0.00 | 0.00 | 0.00 | 56 | 1012.4 |
| 20260509121556 | 55 | 266 | 5.0 | 9.0 | 0.00 | 0.00 | 0.00 | 56 | 1012.2 |
| 20260509114558 | 55 | 241 | 3.0 | 8.0 | 0.00 | 0.00 | 0.00 | 54 | 1012.2 |
| 20260509113109 | 55 | 231 | 3.0 | 9.0 | 0.00 | 0.00 | 0.00 | 54 | 1012.1 |
| 20260509111604 | 55 | 213 | 3.0 | 6.0 | 0.00 | 0.00 | 0.00 | 55 | 1012.0 |
| 20260509110057 | 55 | 199 | 3.0 | 6.0 | 0.00 | 0.00 | 0.00 | 56 | 1011.9 |
| 20260509104557 | 55 | 209 | 4.0 | 9.0 | 0.00 | 0.00 | 0.00 | 53 | 1011.8 |
| 20260509103104 | 56 | 233 | 4.0 | 8.0 | 0.00 | 0.00 | 0.00 | 52 | 1011.9 |
| 20260509101558 | 56 | 215 | 3.0 | 11.0 | 0.00 | 0.00 | 0.00 | 50 | 1012.0 |
| 20260509100054 | 57 | 190 | 5.0 | 10.0 | 0.00 | 0.00 | 0.00 | 49 | 1011.9 |
| 20260509094556 | 57 | 207 | 5.0 | 9.0 | 0.00 | 0.00 | 0.00 | 49 | 1012.0 |
| 20260509093055 | 57 | 189 | 4.0 | 10.0 | 0.00 | 0.00 | 0.00 | 49 | 1012.0 |
| 20260509091606 | 57 | 199 | 5.0 | 9.0 | 0.00 | 0.00 | 0.00 | 48 | 1012.2 |
| 20260509090056 | 56 | 208 | 5.0 | 9.0 | 0.00 | 0.00 | 0.00 | 49 | 1012.2 |
| 20260509084558 | 56 | 197 | 3.0 | 8.0 | 0.00 | 0.00 | 0.00 | 50 | 1012.1 |
| 20260509083054 | 56 | 170 | 3.0 | 7.0 | 0.00 | 0.00 | 0.00 | 49 | 1012.0 |
| 20260509081603 | 56 | 206 | 4.0 | 9.0 | 0.00 | 0.00 | 0.00 | 49 | 1012.2 |
| 20260509080059 | 56 | 185 | 3.0 | 10.0 | 0.00 | 0.00 | 0.00 | 50 | 1012.4 |
| 20260509074556 | 55 | 189 | 1.0 | 4.0 | 0.00 | 0.00 | 0.00 | 51 | 1012.4 |
| 20260509073057 | 55 | 189 | 1.0 | 4.0 | 0.00 | 0.00 | 0.00 | 51 | 1012.6 |
| 20260509071559 | 55 | 189 | 0.0 | 5.0 | 0.00 | 0.00 | 0.00 | 53 | 1012.7 |
| 20260509070104 | 55 | 191 | 1.0 | 4.0 | 0.00 | 0.00 | 0.00 | 54 | 1012.6 |
| 20260509064557 | 55 | 0 | 0.0 | 3.0 | 0.00 | 0.00 | 0.00 | 55 | 1012.6 |